TimeEST,TemperatureF,Dew PointF,Humidity,Sea Level PressureIn,VisibilityMPH,Wind Direction,Wind SpeedMPH,Gust SpeedMPH,PrecipitationIn,Events,Conditions,WindDirDegrees,DateUTC
12:15 AM,53.6,51.8,94,29.90,10.0,North,4.6,-,N/A,,Mostly Cloudy,350,2012-11-07 05:15:00
12:35 AM,53.6,51.8,94,29.89,10.0,North,4.6,-,N/A,,Mostly Cloudy,350,2012-11-07 05:35:00
12:55 AM,51.8,50.0,94,29.89,10.0,Calm,Calm,-,N/A,,Scattered Clouds,0,2012-11-07 05:55:00
1:15 AM,53.6,51.8,94,29.89,10.0,Calm,Calm,-,N/A,,Overcast,0,2012-11-07 06:15:00
1:35 AM,53.6,51.8,94,29.89,10.0,NW,5.8,-,N/A,,Overcast,320,2012-11-07 06:35:00
1:55 AM,53.6,50.0,88,29.89,10.0,NNW,8.1,-,N/A,,Overcast,340,2012-11-07 06:55:00
2:15 AM,53.6,50.0,88,29.89,10.0,NNW,9.2,-,N/A,,Overcast,330,2012-11-07 07:15:00
2:35 AM,53.6,50.0,88,29.89,10.0,NW,8.1,-,N/A,,Overcast,320,2012-11-07 07:35:00
2:55 AM,51.8,48.2,88,29.89,10.0,NW,11.5,-,N/A,,Overcast,310,2012-11-07 07:55:00
3:15 AM,50.0,48.2,94,29.90,10.0,NW,11.5,-,N/A,,Overcast,310,2012-11-07 08:15:00
3:35 AM,50.0,46.4,87,29.90,10.0,WNW,10.4,-,N/A,,Overcast,290,2012-11-07 08:35:00
3:55 AM,50.0,44.6,82,29.91,10.0,WNW,11.5,-,N/A,,Overcast,300,2012-11-07 08:55:00
4:15 AM,48.2,44.6,87,29.91,10.0,WNW,9.2,-,N/A,,Mostly Cloudy,300,2012-11-07 09:15:00
4:35 AM,48.2,42.8,82,29.92,10.0,WNW,8.1,-,N/A,,Mostly Cloudy,300,2012-11-07 09:35:00
4:55 AM,46.4,41.0,81,29.93,10.0,WNW,6.9,-,N/A,,Scattered Clouds,300,2012-11-07 09:55:00
5:15 AM,46.4,41.0,81,29.93,10.0,WNW,6.9,-,N/A,,Partly Cloudy,290,2012-11-07 10:15:00
6:50 AM,42.8,41.0,93,29.94,10.0,NW,4.6,-,N/A,,Clear,310,2012-11-07 11:50:00
7:50 AM,44.6,42.8,93,29.97,10.0,NW,6.9,-,N/A,,Clear,310,2012-11-07 12:50:00
8:50 AM,46.4,41.0,81,29.97,10.0,WNW,4.6,-,N/A,,Mostly Cloudy,290,2012-11-07 13:50:00
9:50 AM,50.0,41.0,71,29.98,10.0,NW,8.1,-,N/A,,Scattered Clouds,310,2012-11-07 14:50:00
10:50 AM,55.4,41.0,58,29.98,10.0,NW,11.5,-,N/A,,Clear,310,2012-11-07 15:50:00
11:50 AM,57.2,41.0,55,29.96,10.0,NW,8.1,-,N/A,,Clear,310,2012-11-07 16:50:00
1:50 PM,59.0,42.8,55,29.90,10.0,NNW,9.2,-,N/A,,Mostly Cloudy,330,2012-11-07 18:50:00
2:50 PM,59.0,42.8,55,29.89,10.0,WNW,5.8,-,N/A,,Mostly Cloudy,300,2012-11-07 19:50:00
3:50 PM,59.0,42.8,55,29.89,10.0,WNW,5.8,-,N/A,,Mostly Cloudy,300,2012-11-07 20:50:00
4:50 PM,53.6,46.4,77,29.90,10.0,North,4.6,-,N/A,,Scattered Clouds,360,2012-11-07 21:50:00
5:50 PM,51.8,48.2,88,29.91,10.0,Calm,Calm,-,N/A,,Mostly Cloudy,0,2012-11-07 22:50:00
7:50 PM,46.4,46.4,100,29.95,10.0,Calm,Calm,-,N/A,,Scattered Clouds,0,2012-11-08 00:50:00
7:55 PM,48.2,48.2,100,29.96,5.0,West,4.6,-,N/A,Rain,Light Rain,270,2012-11-08 00:55:00
8:15 PM,51.8,48.2,88,29.97,10.0,Calm,Calm,-,N/A,,Overcast,0,2012-11-08 01:15:00
8:35 PM,51.8,48.2,88,29.98,10.0,Calm,Calm,-,N/A,,Mostly Cloudy,0,2012-11-08 01:35:00
8:55 PM,48.2,48.2,100,29.99,10.0,Calm,Calm,-,N/A,,Scattered Clouds,0,2012-11-08 01:55:00
9:15 PM,50.0,46.4,87,30.01,10.0,North,6.9,-,N/A,,Scattered Clouds,360,2012-11-08 02:15:00
9:35 PM,50.0,46.4,87,30.01,10.0,North,5.8,-,N/A,,Mostly Cloudy,350,2012-11-08 02:35:00
9:55 PM,48.2,46.4,93,30.01,10.0,Calm,Calm,-,N/A,,Mostly Cloudy,0,2012-11-08 02:55:00
10:15 PM,48.2,44.6,87,30.02,10.0,Calm,Calm,-,N/A,,Partly Cloudy,0,2012-11-08 03:15:00
10:35 PM,46.4,44.6,93,30.02,10.0,Calm,Calm,-,N/A,,Clear,0,2012-11-08 03:35:00
10:55 PM,44.6,42.8,93,30.02,10.0,Calm,Calm,-,N/A,,Clear,0,2012-11-08 03:55:00
11:15 PM,42.8,41.0,93,30.02,8.0,West,3.5,-,N/A,,Scattered Clouds,260,2012-11-08 04:15:00
11:35 PM,46.4,46.4,100,30.02,10.0,West,4.6,-,N/A,,Scattered Clouds,270,2012-11-08 04:35:00
11:55 PM,44.6,44.6,100,30.02,10.0,Calm,Calm,-,N/A,,Mostly Cloudy,0,2012-11-08 04:55:00